Location: Gradaro
(45.0833°N, 10.8833°E)
Time: 23:01:58
(UTC+00:00)

Cosmos 2263 Rocket - Pass Details

Date: 28 April 2021
Orbit: 824 x 848 km, 71.0° (Epoch: 15 May)

Event Time Altitude Azimuth Distance (km) Brightness Sun altitude
Rises 20:27:52 0° 208° (SSW) 3,346 5.1 -19.6°
Reaches altitude 10° 20:30:17 10° 209° (SSW) 2,417 4.4 -19.9°
Maximum altitude 20:35:50 78° 297° (WNW) 847 2.2 -20.6°
Drops below altitude 10° 20:41:25 10° 24° (NNE) 2,439 4.9 -21.2°
Sets 20:43:53 0° 25° (NNE) 3,379 5.7 -21.5°
